| time (UTC) | temp F | wind direction | speed MPH | gust MPH | rain 1hr in | rain 24hr in | rain mn in | humidity % | barometer mb |
| 20260904213019 | 81 | 182 | 0.0 | 1.0 | 0.00 | 0.00 | 0.00 | 86 | |
| 20260904212539 | 81 | 102 | 0.0 | 0.0 | 0.00 | 0.00 | 0.00 | 85 | |
| 20260904212049 | 81 | 169 | 0.0 | 0.0 | 0.00 | 0.00 | 0.00 | 85 | |
| 20260904211639 | 81 | 117 | 0.0 | 4.0 | 0.00 | 0.00 | 0.00 | 85 | |
| 20260904211229 | 81 | 160 | 0.0 | 4.0 | 0.00 | 0.00 | 0.00 | 85 | |
| 20260904210824 | 81 | 124 | 0.0 | 1.0 | 0.00 | 0.00 | 0.00 | 84 | |
| 20260904210414 | 81 | 173 | 0.0 | 0.0 | 0.00 | 0.00 | 0.00 | 85 | |
| 20260904210009 | 81 | 161 | 0.0 | 1.0 | 0.00 | 0.00 | 0.00 | 85 | |
| 20260904205535 | 81 | 117 | 0.0 | 2.0 | 0.00 | 0.00 | 0.00 | 84 | |
| 20260904205129 | 81 | 130 | 0.0 | 2.0 | 0.00 | 0.23 | 0.00 | 84 | |
| 20260904204654 | 81 | 134 | 0.0 | 2.0 | 0.00 | 0.00 | 0.00 | 84 | |
| 20260904204159 | 81 | 106 | 0.0 | 1.0 | 0.00 | 0.00 | 0.00 | 85 | |
| 20260904203724 | 81 | 126 | 0.0 | 1.0 | 0.00 | 0.00 | 0.00 | 83 | |
| 20260904203324 | 81 | 169 | 0.0 | 0.0 | 0.00 | 0.00 | 0.00 | 84 | |
| 20260904202829 | 81 | 153 | 0.0 | 1.0 | 0.00 | 0.00 | 0.00 | 85 | |
| 20260904202359 | 81 | 167 | 0.0 | 0.0 | 0.00 | 0.00 | 0.00 | 84 | |
| 20260904201944 | 81 | 170 | 0.0 | 0.0 | 0.00 | 0.00 | 0.00 | 83 | |
| 20260904201544 | 81 | 119 | 0.0 | 3.0 | 0.00 | 0.00 | 0.00 | 85 | |
| 20260904201119 | 81 | 151 | 0.0 | 0.0 | 0.00 | 0.00 | 0.00 | 84 | |
| 20260904200654 | 81 | 116 | 0.0 | 2.0 | 0.00 | 0.00 | 0.00 | 84 | |
| 20260904200229 | 81 | 195 | 0.0 | 0.0 | 0.00 | 0.00 | 0.00 | 85 | |
| 20260904195759 | 81 | 177 | 0.0 | 3.0 | 0.00 | 0.00 | 0.00 | 84 | |
| 20260904195309 | 81 | 146 | 0.0 | 3.0 | 0.00 | 0.23 | 0.00 | 83 | |
| 20260904194904 | 81 | 168 | 0.0 | 2.0 | 0.00 | 0.00 | 0.00 | 83 | |
| 20260904194454 | 81 | 57 | 0.0 | 2.0 | 0.00 | 0.00 | 0.00 | 82 | |
| 20260904194044 | 81 | 140 | 0.0 | 1.0 | 0.00 | 0.00 | 0.00 | 82 | |
| 20260904193639 | 81 | 112 | 0.0 | 2.0 | 0.00 | 0.00 | 0.00 | 81 | |
| 20260904193224 | 81 | 121 | 0.0 | 0.0 | 0.00 | 0.00 | 0.00 | 83 | |
| 20260904192803 | 81 | 145 | 0.0 | 1.0 | 0.00 | 0.00 | 0.00 | 82 | |
| 20260904192309 | 81 | 171 | 0.0 | 1.0 | 0.00 | 0.00 | 0.00 | 84 | |
| 20260904191904 | 81 | 95 | 0.0 | 0.0 | 0.00 | 0.00 | 0.00 | 81 | |
| 20260904191454 | 81 | 144 | 0.0 | 3.0 | 0.00 | 0.00 | 0.00 | 83 | |
| 20260904191034 | 81 | 25 | 0.0 | 0.0 | 0.00 | 0.00 | 0.00 | 82 | |
| 20260904190602 | 81 | 179 | 0.0 | 0.0 | 0.00 | 0.00 | 0.00 | 83 | |
| 20260904190134 | 81 | 140 | 0.0 | 0.0 | 0.00 | 0.00 | 0.00 | 83 | |
| 20260904185644 | 81 | 127 | 0.0 | 1.0 | 0.00 | 0.00 | 0.00 | 82 | |
| 20260904185224 | 81 | 132 | 1.0 | 2.0 | 0.00 | 0.23 | 0.00 | 81 | |
| 20260904184759 | 81 | 182 | 0.0 | 3.0 | 0.00 | 0.00 | 0.00 | 79 | |
| 20260904184334 | 81 | 214 | 0.0 | 3.0 | 0.00 | 0.00 | 0.00 | 82 | |
| 20260904183926 | 81 | 153 | 1.0 | 3.0 | 0.00 | 0.00 | 0.00 | 81 | |
| 20260904183444 | 81 | 131 | 1.0 | 2.0 | 0.00 | 0.00 | 0.00 | 82 | |
| 20260904182949 | 81 | 159 | 0.0 | 0.0 | 0.00 | 0.00 | 0.00 | 84 | |
| 20260904182509 | 81 | 134 | 0.0 | 0.0 | 0.00 | 0.00 | 0.00 | 82 | |
| 20260904182049 | 81 | 222 | 1.0 | 1.0 | 0.00 | 0.00 | 0.00 | 81 | |
| 20260904181614 | 81 | 158 | 0.0 | 2.0 | 0.00 | 0.00 | 0.00 | 83 | |
| 20260904181149 | 81 | 158 | 1.0 | 2.0 | 0.00 | 0.00 | 0.00 | 82 | |
| 20260904180714 | 81 | 172 | 1.0 | 4.0 | 0.00 | 0.00 | 0.00 | 82 | |
| 20260904180229 | 81 | 190 | 0.0 | 4.0 | 0.00 | 0.00 | 0.00 | 82 | |
| 20260904175756 | 81 | 146 | 0.0 | 3.0 | 0.00 | 0.00 | 0.00 | 81 | |
| 20260904175349 | 81 | 89 | 1.0 | 1.0 | 0.00 | 0.23 | 0.00 | 84 | |
| 20260904174949 | 81 | 73 | 1.0 | 4.0 | 0.00 | 0.00 | 0.00 | 83 | |
| 20260904174537 | 81 | 165 | 1.0 | 4.0 | 0.00 | 0.00 | 0.00 | 84 | |
| 20260904174119 | 81 | 199 | 1.0 | 6.0 | 0.00 | 0.00 | 0.00 | 84 | |
| 20260904173649 | 81 | 156 | 1.0 | 4.0 | 0.00 | 0.00 | 0.00 | 83 | |
| 20260904173215 | 81 | 173 | 1.0 | 4.0 | 0.00 | 0.00 | 0.00 | 83 | |
| 20260904172754 | 81 | 182 | 0.0 | 5.0 | 0.00 | 0.00 | 0.00 | 87 | |
| 20260904172354 | 81 | 199 | 0.0 | 2.0 | 0.00 | 0.00 | 0.00 | 84 | |
| 20260904171859 | 81 | 132 | 1.0 | 2.0 | 0.00 | 0.00 | 0.00 | 87 | |
| 20260904171404 | 81 | 349 | 0.0 | 5.0 | 0.00 | 0.00 | 0.00 | 86 | |
| 20260904170924 | 81 | 129 | 1.0 | 4.0 | 0.00 | 0.00 | 0.00 | 85 | |
| 20260904170429 | 81 | 170 | 1.0 | 8.0 | 0.00 | 0.00 | 0.00 | 85 | |
| 20260904170014 | 81 | 110 | 1.0 | 2.0 | 0.00 | 0.00 | 0.00 | 85 | |
| 20260904165604 | 81 | 177 | 0.0 | 0.0 | 0.00 | 0.00 | 0.00 | 86 | |
| 20260904165139 | 81 | 108 | 0.0 | 1.0 | 0.00 | 0.23 | 0.00 | 86 | |
| 20260904164724 | 81 | 241 | 0.0 | 3.0 | 0.00 | 0.00 | 0.00 | 86 | |
| 20260904164229 | 81 | 164 | 0.0 | 2.0 | 0.00 | 0.00 | 0.00 | 85 | |
| 20260904163828 | 81 | 152 | 0.0 | 3.0 | 0.00 | 0.00 | 0.00 | 85 | |
| 20260904163339 | 81 | 205 | 0.0 | 3.0 | 0.00 | 0.00 | 0.00 | 85 | |
| 20260904162854 | 81 | 103 | 0.0 | 0.0 | 0.00 | 0.00 | 0.00 | 85 | |
| 20260904162439 | 81 | 115 | 0.0 | 1.0 | 0.00 | 0.00 | 0.00 | 87 | |
| 20260904161939 | 81 | 145 | 1.0 | 0.0 | 0.00 | 0.00 | 0.00 | 85 | |
| 20260904161454 | 81 | 128 | 0.0 | 2.0 | 0.00 | 0.00 | 0.00 | 87 | |
| 20260904161044 | 81 | 176 | 0.0 | 2.0 | 0.00 | 0.00 | 0.00 | 86 | |
| 20260904160639 | 81 | 113 | 0.0 | 1.0 | 0.00 | 0.00 | 0.00 | 86 | |
| 20260904160229 | 81 | 146 | 1.0 | 1.0 | 0.00 | 0.00 | 0.00 | 87 | |
| 20260904155754 | 81 | 128 | 1.0 | 1.0 | 0.00 | 0.00 | 0.00 | 87 | |
| 20260904155339 | 81 | 170 | 1.0 | 1.0 | 0.00 | 0.23 | 0.00 | 86 | |
| 20260904154914 | 81 | 134 | 0.0 | 5.0 | 0.00 | 0.00 | 0.00 | 85 | |
| 20260904154414 | 81 | 174 | 0.0 | 2.0 | 0.00 | 0.00 | 0.00 | 88 | |
| 20260904153944 | 81 | 161 | 0.0 | 0.0 | 0.00 | 0.00 | 0.00 | 87 | |
| 20260904153454 | 81 | 156 | 0.0 | 2.0 | 0.00 | 0.00 | 0.00 | 87 | |
| 20260904153049 | 81 | 204 | 0.0 | 2.0 | 0.00 | 0.00 | 0.00 | 86 | |
| 20260904152554 | 81 | 128 | 0.0 | 3.0 | 0.00 | 0.00 | 0.00 | 85 | |
| 20260904152114 | 81 | 116 | 0.0 | 0.0 | 0.00 | 0.00 | 0.00 | 88 | |
| 20260904151709 | 81 | 119 | 0.0 | 2.0 | 0.00 | 0.00 | 0.00 | 86 | |
| 20260904151254 | 81 | 159 | 0.0 | 1.0 | 0.00 | 0.00 | 0.00 | 87 | |
| 20260904150834 | 81 | 187 | 1.0 | 0.0 | 0.00 | 0.00 | 0.00 | 87 | |
| 20260904150349 | 81 | 130 | 0.0 | 4.0 | 0.00 | 0.00 | 0.00 | 86 | |
| 20260904145944 | 81 | 163 | 0.0 | 0.0 | 0.00 | 0.00 | 0.00 | 87 | |
| 20260904145519 | 81 | 199 | 0.0 | 1.0 | 0.00 | 0.00 | 0.00 | 87 | |
| 20260904145119 | 81 | 143 | 0.0 | 0.0 | 0.00 | 0.23 | 0.00 | 88 | |
| 20260904144624 | 81 | 257 | 0.0 | 0.0 | 0.00 | 0.00 | 0.00 | 87 | |
| 20260904144214 | 81 | 125 | 0.0 | 1.0 | 0.00 | 0.00 | 0.00 | 87 | |
| 20260904143724 | 81 | 187 | 0.0 | 1.0 | 0.00 | 0.00 | 0.00 | 88 | |
| 20260904143314 | 81 | 103 | 0.0 | 2.0 | 0.00 | 0.00 | 0.00 | 86 | |
| 20260904142859 | 81 | 155 | 0.0 | 2.0 | 0.00 | 0.00 | 0.00 | 89 | |
| 20260904142449 | 81 | 198 | 0.0 | 0.0 | 0.00 | 0.00 | 0.00 | 88 | |
| 20260904142009 | 81 | 136 | 1.0 | 3.0 | 0.00 | 0.00 | 0.00 | 87 | |
| 20260904141513 | 81 | 192 | 1.0 | 3.0 | 0.00 | 0.00 | 0.00 | 87 | |
| 20260904141014 | 80 | 167 | 1.0 | 4.0 | 0.00 | 0.00 | 0.00 | 90 | |
| 20260904140514 | 81 | 46 | 1.0 | 4.0 | 0.00 | 0.00 | 0.00 | 91 | |
| 20260904140024 | 81 | 158 | 1.0 | 4.0 | 0.00 | 0.00 | 0.00 | 92 | |
| 20260904135609 | 80 | 168 | 0.0 | 3.0 | 0.00 | 0.00 | 0.00 | 92 | |
| 20260904135134 | 80 | 0 | 2.0 | 3.0 | 0.00 | 0.23 | 0.00 | 93 | |
| 20260904134634 | 80 | 194 | 2.0 | 3.0 | 0.00 | 0.00 | 0.00 | 93 | |
| 20260904134204 | 80 | 142 | 1.0 | 3.0 | 0.00 | 0.00 | 0.00 | 93 | |
| 20260904133704 | 80 | 175 | 1.0 | 2.0 | 0.00 | 0.00 | 0.00 | 94 | |
| 20260904133214 | 80 | 146 | 1.0 | 1.0 | 0.00 | 0.00 | 0.00 | 93 | |
| 20260904132759 | 80 | 210 | 0.0 | 5.0 | 0.00 | 0.00 | 0.00 | 94 | |
| 20260904132339 | 80 | 129 | 0.0 | 2.0 | 0.00 | 0.00 | 0.00 | 95 | |
| 20260904131854 | 80 | 199 | 1.0 | 4.0 | 0.00 | 0.00 | 0.00 | 94 | |
| 20260904131449 | 80 | 199 | 1.0 | 4.0 | 0.00 | 0.00 | 0.00 | 94 | |
| 20260904131039 | 80 | 161 | 1.0 | 4.0 | 0.00 | 0.00 | 0.00 | 94 | |
| 20260904130624 | 80 | 166 | 1.0 | 3.0 | 0.00 | 0.00 | 0.00 | 95 | |
| 20260904130159 | 80 | 154 | 1.0 | 3.0 | 0.00 | 0.00 | 0.00 | 95 | |
| 20260904125724 | 80 | 195 | 1.0 | 4.0 | 0.00 | 0.00 | 0.00 | 95 | |
| 20260904125259 | 80 | 49 | 2.0 | 5.0 | 0.00 | 0.23 | 0.00 | 94 | |
| 20260904124859 | 80 | 185 | 2.0 | 3.0 | 0.00 | 0.00 | 0.00 | 95 | |
| 20260904124419 | 80 | 135 | 1.0 | 3.0 | 0.00 | 0.00 | 0.00 | 95 | |
| 20260904123948 | 80 | 188 | 1.0 | 3.0 | 0.00 | 0.00 | 0.00 | 94 | |
| 20260904123520 | 80 | 241 | 2.0 | 5.0 | 0.00 | 0.00 | 0.00 | 96 | |
| 20260904123039 | 80 | 181 | 1.0 | 4.0 | 0.00 | 0.00 | 0.00 | 95 | |
| 20260904122554 | 80 | 204 | 1.0 | 6.0 | 0.00 | 0.00 | 0.00 | 95 | |
| 20260904122139 | 80 | 122 | 1.0 | 4.0 | 0.00 | 0.00 | 0.00 | 95 | |
| 20260904121702 | 80 | 105 | 0.0 | 5.0 | 0.00 | 0.00 | 0.00 | 96 | |
| 20260904121204 | 80 | 13 | 2.0 | 2.0 | 0.00 | 0.00 | 0.00 | 96 | |
| 20260904120704 | 80 | 119 | 2.0 | 0.0 | 0.00 | 0.00 | 0.00 | 96 | |
| 20260904120239 | 80 | 145 | 1.0 | 8.0 | 0.00 | 0.00 | 0.00 | 96 | |
| 20260904115834 | 80 | 170 | 0.0 | 2.0 | 0.00 | 0.00 | 0.00 | 97 | |
| 20260904115409 | 80 | 199 | 0.0 | 3.0 | 0.00 | 0.23 | 0.00 | 97 | |
| 20260904114944 | 80 | 132 | 2.0 | 4.0 | 0.00 | 0.00 | 0.00 | 96 | |
| 20260904114519 | 80 | 163 | 0.0 | 6.0 | 0.00 | 0.00 | 0.00 | 97 | |
| 20260904114104 | 80 | 248 | 0.0 | 3.0 | 0.00 | 0.00 | 0.00 | 97 | |
| 20260904113639 | 80 | 143 | 0.0 | 0.0 | 0.00 | 0.00 | 0.00 | 97 | |
| 20260904113204 | 80 | 144 | 0.0 | 1.0 | 0.00 | 0.00 | 0.00 | 98 | |
| 20260904112734 | 80 | 128 | 1.0 | 3.0 | 0.00 | 0.00 | 0.00 | 98 | |
| 20260904112259 | 80 | 153 | 0.0 | 5.0 | 0.00 | 0.00 | 0.00 | 98 | |
| 20260904111804 | 80 | 333 | 1.0 | 3.0 | 0.00 | 0.00 | 0.00 | 98 | |
| 20260904111359 | 80 | 162 | 2.0 | 5.0 | 0.00 | 0.00 | 0.00 | 98 | |
| 20260904110944 | 80 | 154 | 2.0 | 2.0 | 0.00 | 0.00 | 0.00 | 98 | |
| 20260904110514 | 79 | 109 | 2.0 | 5.0 | 0.00 | 0.00 | 0.00 | 98 | |
| 20260904110034 | 79 | 120 | 2.0 | 5.0 | 0.00 | 0.00 | 0.00 | 99 | |
| 20260904105549 | 79 | 166 | 2.0 | 5.0 | 0.00 | 0.00 | 0.00 | 99 | |
| 20260904105134 | 79 | 198 | 1.0 | 5.0 | 0.00 | 0.23 | 0.00 | 99 | |
| 20260904104709 | 79 | 179 | 2.0 | 4.0 | 0.00 | 0.00 | 0.00 | 99 | |
| 20260904104254 | 79 | 135 | 1.0 | 5.0 | 0.00 | 0.00 | 0.00 | 10 | |
| 20260904103814 | 79 | 143 | 1.0 | 4.0 | 0.00 | 0.00 | 0.00 | 10 | |
| 20260904103329 | 79 | 223 | 2.0 | 1.0 | 0.00 | 0.00 | 0.00 | 10 | |
| 20260904102859 | 79 | 139 | 1.0 | 4.0 | 0.00 | 0.00 | 0.00 | 10 | |
| 20260904102439 | 79 | 146 | 1.0 | 4.0 | 0.00 | 0.00 | 0.00 | 10 | |
| 20260904102014 | 79 | 127 | 1.0 | 4.0 | 0.00 | 0.00 | 0.00 | 10 | |
| 20260904101524 | 79 | 130 | 2.0 | 6.0 | 0.00 | 0.00 | 0.00 | 10 | |
| 20260904101039 | 79 | 149 | 2.0 | 6.0 | 0.00 | 0.00 | 0.00 | 10 | |
| 20260904100558 | 79 | 153 | 1.0 | 5.0 | 0.00 | 0.00 | 0.00 | 10 | |
| 20260904100149 | 80 | 241 | 1.0 | 4.0 | 0.00 | 0.00 | 0.00 | 10 | |
| 20260904095739 | 80 | 216 | 1.0 | 4.0 | 0.00 | 0.00 | 0.00 | 10 | |
| 20260904095249 | 80 | 120 | 0.0 | 3.0 | 0.01 | 0.23 | 0.00 | 10 | |
| 20260904094834 | 80 | 28 | 1.0 | 3.0 | 0.00 | 0.00 | 0.00 | 10 | |
| 20260904094359 | 80 | 111 | 0.0 | 5.0 | 0.00 | 0.00 | 0.00 | 10 | |
| 20260904093912 | 80 | 146 | 2.0 | 4.0 | 0.00 | 0.00 | 0.00 | 10 | |
| 20260904093434 | 80 | 153 | 1.0 | 5.0 | 0.00 | 0.00 | 0.00 | 10 | |
| 20260904093029 | 80 | 129 | 1.0 | 4.0 | 0.00 | 0.00 | 0.00 | 10 | |
| 20260904092559 | 80 | 198 | 2.0 | 3.0 | 0.00 | 0.00 | 0.00 | 10 | |
| 20260904092119 | 80 | 155 | 2.0 | 8.0 | 0.00 | 0.00 | 0.00 | 99 | |
| 20260904091644 | 80 | 218 | 3.0 | 7.0 | 0.00 | 0.00 | 0.00 | 98 | |
| 20260904091154 | 81 | 129 | 3.0 | 14.0 | 0.00 | 0.00 | 0.00 | 95 | |
| 20260904090754 | 84 | 166 | 2.0 | 9.0 | 0.00 | 0.00 | 0.00 | 89 | |
| 20260904090319 | 86 | 91 | 2.0 | 7.0 | 0.00 | 0.00 | 0.00 | 75 | |
| 20260904085824 | 86 | 190 | 2.0 | 2.0 | 0.00 | 0.00 | 0.00 | 76 | |
| 20260904085337 | 86 | 180 | 3.0 | 6.0 | 0.00 | 0.04 | 0.00 | 75 | |
| 20260904084929 | 86 | 150 | 2.0 | 7.0 | 0.00 | 0.00 | 0.00 | 75 | |
| 20260904084503 | 86 | 152 | 1.0 | 3.0 | 0.00 | 0.00 | 0.00 | 75 | |
| 20260904084029 | 86 | 160 | 1.0 | 4.0 | 0.00 | 0.00 | 0.00 | 75 | |
| 20260904083604 | 86 | 197 | 2.0 | 5.0 | 0.00 | 0.00 | 0.00 | 75 | |
| 20260904083144 | 86 | 131 | 2.0 | 5.0 | 0.00 | 0.00 | 0.00 | 74 | |
| 20260904082649 | 86 | 143 | 3.0 | 7.0 | 0.00 | 0.00 | 0.00 | 75 | |
| 20260904082234 | 86 | 170 | 3.0 | 7.0 | 0.00 | 0.00 | 0.00 | 75 | |
| 20260904081829 | 86 | 170 | 2.0 | 8.0 | 0.00 | 0.00 | 0.00 | 76 | |
| 20260904081334 | 86 | 242 | 2.0 | 4.0 | 0.00 | 0.00 | 0.00 | 77 | |
| 20260904080859 | 86 | 215 | 1.0 | 7.0 | 0.00 | 0.00 | 0.00 | 77 | |
| 20260904080409 | 86 | 110 | 2.0 | 5.0 | 0.00 | 0.00 | 0.00 | 77 | |
| 20260904080004 | 86 | 141 | 2.0 | 4.0 | 0.00 | 0.00 | 0.00 | 76 | |
| 20260904075514 | 86 | 218 | 2.0 | 6.0 | 0.00 | 0.04 | 0.00 | 77 | |
| 20260904075014 | 86 | 132 | 2.0 | 6.0 | 0.00 | 0.00 | 0.00 | 79 | |
| 20260904074614 | 86 | 87 | 2.0 | 2.0 | 0.00 | 0.00 | 0.00 | 80 | |
| 20260904074159 | 85 | 240 | 1.0 | 7.0 | 0.00 | 0.00 | 0.00 | 80 | |
| 20260904073714 | 85 | 166 | 1.0 | 4.0 | 0.00 | 0.00 | 0.00 | 82 | |
| 20260904073244 | 85 | 232 | 1.0 | 3.0 | 0.00 | 0.00 | 0.00 | 82 | |
| 20260904072834 | 84 | 168 | 2.0 | 3.0 | 0.00 | 0.00 | 0.00 | 83 | |
| 20260904072429 | 84 | 203 | 2.0 | 1.0 | 0.00 | 0.00 | 0.00 | 83 | |
| 20260904071934 | 84 | 203 | 3.0 | 2.0 | 0.00 | 0.00 | 0.00 | 85 | |
| 20260904071504 | 85 | 182 | 4.0 | 6.0 | 0.00 | 0.00 | 0.00 | 83 | |
| 20260904071044 | 87 | 175 | 2.0 | 11.0 | 0.00 | 0.00 | 0.00 | 80 | |
| 20260904070619 | 87 | 93 | 2.0 | 6.0 | 0.00 | 0.00 | 0.00 | 76 | |
| 20260904070154 | 87 | 20 | 3.0 | 5.0 | 0.00 | 0.00 | 0.00 | 77 | |
| 20260904065739 | 87 | 133 | 3.0 | 10.0 | 0.00 | 0.00 | 0.00 | 75 | |
| 20260904065259 | 87 | 134 | 3.0 | 4.0 | 0.00 | 0.03 | 0.00 | 75 | |
| 20260904064814 | 87 | 36 | 2.0 | 5.0 | 0.00 | 0.00 | 0.00 | 76 | |
| 20260904064334 | 87 | 151 | 1.0 | 6.0 | 0.00 | 0.00 | 0.00 | 77 | |
| 20260904063854 | 87 | 86 | 2.0 | 6.0 | 0.00 | 0.00 | 0.00 | 78 | |
| 20260904063449 | 87 | 179 | 3.0 | 7.0 | 0.00 | 0.00 | 0.00 | 78 | |
| 20260904063044 | 86 | 349 | 1.0 | 8.0 | 0.00 | 0.00 | 0.00 | 78 | |
| 20260904062639 | 86 | 135 | 1.0 | 0.0 | 0.00 | 0.00 | 0.00 | 79 | |
| 20260904062154 | 86 | 109 | 1.0 | 0.0 | 0.00 | 0.00 | 0.00 | 80 | |
| 20260904061729 | 86 | 79 | 0.0 | 5.0 | 0.00 | 0.00 | 0.00 | 80 | |
| 20260904061319 | 86 | 136 | 2.0 | 3.0 | 0.00 | 0.00 | 0.00 | 82 | |
| 20260904060859 | 85 | 80 | 2.0 | 8.0 | 0.00 | 0.00 | 0.00 | 83 | |
| 20260904060424 | 85 | 150 | 2.0 | 9.0 | 0.00 | 0.00 | 0.00 | 84 | |
| 20260904055937 | 86 | 43 | 2.0 | 10.0 | 0.00 | 0.00 | 0.00 | 87 | |
| 20260904055529 | 87 | 196 | 2.0 | 10.0 | 0.00 | 0.00 | 0.00 | 74 | |
| 20260904055054 | 88 | 122 | 1.0 | 5.0 | 0.00 | 0.02 | 0.00 | 73 | |
| 20260904054604 | 87 | 142 | 1.0 | 3.0 | 0.00 | 0.00 | 0.00 | 73 | |
| 20260904054119 | 87 | 176 | 0.0 | 2.0 | 0.00 | 0.00 | 0.00 | 76 | |
| 20260904053639 | 87 | 210 | 3.0 | 2.0 | 0.00 | 0.00 | 0.00 | 75 | |
| 20260904053149 | 87 | 103 | 2.0 | 9.0 | 0.00 | 0.00 | 0.00 | 74 | |
| 20260904052704 | 87 | 130 | 2.0 | 5.0 | 0.00 | 0.00 | 0.00 | 74 | |
| 20260904052239 | 87 | 111 | 2.0 | 7.0 | 0.00 | 0.00 | 0.00 | 75 | |
| 20260904051829 | 88 | 118 | 2.0 | 1.0 | 0.00 | 0.00 | 0.00 | 72 | |
| 20260904051326 | 88 | 136 | 2.0 | 3.0 | 0.00 | 0.00 | 0.00 | 72 | |
| 20260904050924 | 89 | 144 | 2.0 | 4.0 | 0.00 | 0.00 | 0.00 | 71 | |
| 20260904050429 | 89 | 195 | 2.0 | 5.0 | 0.00 | 0.00 | 0.00 | 71 | |
| 20260904045954 | 89 | 165 | 2.0 | 4.0 | 0.00 | 0.00 | 0.00 | 70 | |
| 20260904045524 | 89 | 133 | 3.0 | 6.0 | 0.00 | 0.00 | 0.00 | 70 | |
| 20260904045034 | 88 | 359 | 3.0 | 10.0 | 0.00 | 0.02 | 0.00 | 71 | |
| 20260904044629 | 88 | 50 | 2.0 | 11.0 | 0.00 | 0.00 | 0.00 | 71 | |
| 20260904044144 | 88 | 223 | 2.0 | 1.0 | 0.00 | 0.00 | 0.00 | 72 | |
| 20260904043649 | 88 | 180 | 2.0 | 4.0 | 0.00 | 0.00 | 0.00 | 71 | |
| 20260904043209 | 89 | 137 | 3.0 | 5.0 | 0.00 | 0.00 | 0.00 | 71 | |
| 20260904042759 | 90 | 136 | 1.0 | 5.0 | 0.00 | 0.00 | 0.00 | 74 | |
| 20260904042354 | 89 | 66 | 3.0 | 7.0 | 0.00 | 0.00 | 0.00 | 73 | |
| 20260904041944 | 89 | 174 | 3.0 | 8.0 | 0.00 | 0.00 | 0.00 | 75 | |
| 20260904041521 | 89 | 92 | 3.0 | 11.0 | 0.00 | 0.00 | 0.00 | 76 | |
| 20260904041049 | 88 | 114 | 3.0 | 6.0 | 0.00 | 0.00 | 0.00 | 76 | |
| 20260904040554 | 88 | 176 | 2.0 | 8.0 | 0.00 | 0.00 | 0.00 | 78 | |
| 20260904040126 | 87 | 150 | 2.0 | 7.0 | 0.00 | 0.00 | 0.00 | 79 | |
| 20260904035709 | 86 | 156 | 1.0 | 4.0 | 0.00 | 0.00 | 0.00 | 84 | |
| 20260904035306 | 85 | 247 | 0.0 | 5.0 | 0.00 | 0.02 | 0.00 | 86 | |
| 20260904034819 | 84 | 182 | 0.0 | 2.0 | 0.00 | 0.00 | 0.00 | 91 | |
| 20260904034349 | 83 | 221 | 1.0 | 3.0 | 0.00 | 0.00 | 0.00 | 92 | |
| 20260904033934 | 82 | 111 | 1.0 | 1.0 | 0.00 | 0.00 | 0.00 | 92 | |
| 20260904033504 | 82 | 150 | 0.0 | 3.0 | 0.00 | 0.00 | 0.00 | 94 | |
| 20260904033054 | 82 | 190 | 1.0 | 3.0 | 0.00 | 0.00 | 0.00 | 94 | |
| 20260904032649 | 82 | 190 | 1.0 | 3.0 | 0.00 | 0.00 | 0.00 | 94 | |
| 20260904032204 | 82 | 153 | 2.0 | 4.0 | 0.00 | 0.00 | 0.00 | 93 | |
| 20260904031749 | 84 | 145 | 1.0 | 6.0 | 0.00 | 0.00 | 0.00 | 91 | |
| 20260904031334 | 86 | 150 | 1.0 | 0.0 | 0.00 | 0.00 | 0.00 | 76 | |
| 20260904030859 | 86 | 179 | 1.0 | 3.0 | 0.00 | 0.00 | 0.00 | 76 | |
| 20260904030424 | 86 | 7 | 2.0 | 2.0 | 0.00 | 0.00 | 0.00 | 77 | |
| 20260904025944 | 85 | 127 | 2.0 | 5.0 | 0.00 | 0.00 | 0.00 | 77 | |
| 20260904025545 | 85 | 154 | 1.0 | 9.0 | 0.00 | 0.00 | 0.00 | 76 | |
| 20260904025049 | 85 | 188 | 2.0 | 6.0 | 0.00 | 0.01 | 0.00 | 80 | |
| 20260904024634 | 85 | 169 | 2.0 | 0.0 | 0.00 | 0.00 | 0.00 | 80 | |
| 20260904024159 | 85 | 84 | 1.0 | 2.0 | 0.00 | 0.00 | 0.00 | 83 | |
| 20260904023734 | 86 | 148 | 2.0 | 4.0 | 0.00 | 0.00 | 0.00 | 75 | |
| 20260904023259 | 86 | 200 | 2.0 | 5.0 | 0.00 | 0.00 | 0.00 | 76 | |
| 20260904022814 | 86 | 152 | 1.0 | 7.0 | 0.00 | 0.00 | 0.00 | 75 | |
| 20260904022349 | 86 | 139 | 1.0 | 4.0 | 0.00 | 0.00 | 0.00 | 75 | |
| 20260904021929 | 86 | 90 | 2.0 | 4.0 | 0.00 | 0.00 | 0.00 | 76 | |
| 20260904021509 | 86 | 161 | 2.0 | 3.0 | 0.00 | 0.00 | 0.00 | 76 | |
| 20260904021054 | 86 | 107 | 2.0 | 7.0 | 0.00 | 0.00 | 0.00 | 75 | |
| 20260904020654 | 86 | 88 | 1.0 | 6.0 | 0.00 | 0.00 | 0.00 | 76 | |
| 20260904020229 | 86 | 161 | 3.0 | 6.0 | 0.00 | 0.00 | 0.00 | 75 | |
| 20260904015824 | 86 | 142 | 2.0 | 8.0 | 0.00 | 0.00 | 0.00 | 75 | |
| 20260904015339 | 86 | 165 | 1.0 | 7.0 | 0.00 | 0.01 | 0.00 | 75 | |
| 20260904014914 | 86 | 121 | 1.0 | 5.0 | 0.00 | 0.00 | 0.00 | 76 | |
| 20260904014459 | 86 | 104 | 1.0 | 9.0 | 0.00 | 0.00 | 0.00 | 75 | |
| 20260904014029 | 85 | 119 | 1.0 | 9.0 | 0.00 | 0.00 | 0.00 | 77 | |
| 20260904013539 | 85 | 161 | 3.0 | 5.0 | 0.00 | 0.00 | 0.00 | 78 | |
| 20260904013124 | 85 | 63 | 1.0 | 13.0 | 0.00 | 0.00 | 0.00 | 77 | |
| 20260904012649 | 85 | 357 | 2.0 | 5.0 | 0.00 | 0.00 | 0.00 | 77 | |
| 20260904012204 | 85 | 102 | 1.0 | 8.0 | 0.00 | 0.00 | 0.00 | 78 | |
| 20260904011754 | 85 | 174 | 1.0 | 3.0 | 0.00 | 0.00 | 0.00 | 79 | |
| 20260904011336 | 85 | 87 | 1.0 | 3.0 | 0.00 | 0.00 | 0.00 | 77 | |
| 20260904010914 | 84 | 334 | 1.0 | 5.0 | 0.00 | 0.00 | 0.00 | 78 | |
| 20260904010434 | 84 | 160 | 2.0 | 5.0 | 0.00 | 0.00 | 0.00 | 79 | |
| 20260904005937 | 84 | 106 | 1.0 | 7.0 | 0.00 | 0.00 | 0.00 | 78 | |
| 20260904005529 | 84 | 162 | 3.0 | 5.0 | 0.00 | 0.00 | 0.00 | 78 | |
| 20260904005034 | 84 | 154 | 2.0 | 10.0 | 0.00 | 0.01 | 0.00 | 77 | |
| 20260904004624 | 84 | 128 | 2.0 | 2.0 | 0.00 | 0.00 | 0.00 | 79 | |
| 20260904004157 | 83 | 111 | 1.0 | 7.0 | 0.00 | 0.00 | 0.00 | 79 | |
| 20260904003729 | 83 | 143 | 1.0 | 6.0 | 0.00 | 0.00 | 0.00 | 80 | |
| 20260904003254 | 83 | 111 | 2.0 | 6.0 | 0.00 | 0.00 | 0.00 | 80 | |
| 20260904002849 | 83 | 173 | 1.0 | 5.0 | 0.00 | 0.00 | 0.00 | 79 | |
| 20260904002439 | 83 | 125 | 2.0 | 6.0 | 0.00 | 0.00 | 0.00 | 79 | |
| 20260904002024 | 83 | 272 | 2.0 | 6.0 | 0.00 | 0.00 | 0.00 | 79 | |
| 20260904001609 | 83 | 44 | 2.0 | 5.0 | 0.00 | 0.00 | 0.00 | 78 | |
| 20260904001119 | 83 | 120 | 1.0 | 2.0 | 0.00 | 0.00 | 0.00 | 79 | |
| 20260904000637 | 83 | 141 | 3.0 | 3.0 | 0.00 | 0.00 | 0.00 | 79 | |
| 20260904000149 | 83 | 111 | 2.0 | 11.0 | 0.00 | 0.00 | 0.00 | 79 | |
| 20260903235729 | 83 | 141 | 3.0 | 10.0 | 0.00 | 0.00 | 0.00 | 78 | |
| 20260903235305 | 83 | 38 | 3.0 | 10.0 | 0.00 | 0.01 | 0.00 | 79 | |
| 20260903234844 | 83 | 89 | 3.0 | 6.0 | 0.00 | 0.00 | 0.00 | 78 | |
| 20260903234354 | 83 | 240 | 2.0 | 1.0 | 0.00 | 0.00 | 0.00 | 79 | |
| 20260903233929 | 82 | 140 | 2.0 | 4.0 | 0.00 | 0.00 | 0.00 | 80 | |
| 20260903233439 | 82 | 338 | 2.0 | 5.0 | 0.00 | 0.00 | 0.00 | 80 | |
| 20260903233039 | 82 | 139 | 2.0 | 6.0 | 0.00 | 0.00 | 0.00 | 81 | |
| 20260903232634 | 82 | 100 | 2.0 | 8.0 | 0.00 | 0.00 | 0.00 | 80 | |
| 20260903232224 | 82 | 194 | 2.0 | 3.0 | 0.00 | 0.00 | 0.00 | 80 | |
| 20260903231804 | 81 | 114 | 2.0 | 3.0 | 0.00 | 0.00 | 0.00 | 81 | |
| 20260903231309 | 81 | 121 | 1.0 | 7.0 | 0.00 | 0.00 | 0.00 | 80 | |
| 20260903230839 | 81 | 165 | 1.0 | 4.0 | 0.00 | 0.00 | 0.00 | 80 | |
| 20260903230434 | 81 | 138 | 2.0 | 6.0 | 0.00 | 0.00 | 0.00 | 81 | |
| 20260903230029 | 81 | 135 | 1.0 | 8.0 | 0.00 | 0.00 | 0.00 | 80 | |
| 20260903225614 | 81 | 125 | 1.0 | 3.0 | 0.00 | 0.00 | 0.00 | 80 | |
| 20260903225134 | 81 | 155 | 1.0 | 3.0 | 0.00 | 0.01 | 0.00 | 80 | |
| 20260903224644 | 81 | 133 | 2.0 | 4.0 | 0.00 | 0.00 | 0.00 | 80 | |
| 20260903224214 | 81 | 211 | 2.0 | 8.0 | 0.00 | 0.00 | 0.00 | 80 | |
| 20260903223749 | 81 | 158 | 2.0 | 10.0 | 0.00 | 0.00 | 0.00 | 80 | |
| 20260903223324 | 81 | 164 | 2.0 | 7.0 | 0.00 | 0.00 | 0.00 | 80 | |
| 20260903222829 | 81 | 178 | 0.0 | 7.0 | 0.00 | 0.00 | 0.00 | 80 | |
| 20260903222410 | 81 | 136 | 1.0 | 3.0 | 0.00 | 0.00 | 0.00 | 81 | |
| 20260903221939 | 81 | 167 | 1.0 | 1.0 | 0.00 | 0.00 | 0.00 | 81 | |
| 20260903221439 | 81 | 122 | 2.0 | 2.0 | 0.00 | 0.00 | 0.00 | 81 | |
| 20260903221014 | 81 | 140 | 2.0 | 3.0 | 0.00 | 0.00 | 0.00 | 80 | |
| 20260903220604 | 81 | 144 | 1.0 | 8.0 | 0.00 | 0.00 | 0.00 | 80 | |
| 20260903220104 | 81 | 105 | 1.0 | 6.0 | 0.00 | 0.00 | 0.00 | 80 | |
| 20260903215634 | 81 | 223 | 2.0 | 4.0 | 0.00 | 0.00 | 0.00 | 80 | |
| 20260903215154 | 81 | 144 | 2.0 | 5.0 | 0.00 | 0.01 | 0.00 | 80 | |
| 20260903214744 | 81 | 90 | 2.0 | 9.0 | 0.00 | 0.00 | 0.00 | 80 | |
| 20260903214329 | 81 | 159 | 2.0 | 2.0 | 0.00 | 0.00 | 0.00 | 80 | |
| 20260903213854 | 81 | 51 | 2.0 | 3.0 | 0.00 | 0.00 | 0.00 | 80 | |
| 20260903213424 | 81 | 144 | 2.0 | 6.0 | 0.00 | 0.00 | 0.00 | 80 |